Time,TemperatureF,DewpointF,PressureIn,WindDirection,WindDirectionDegrees,WindSpeedMPH,WindSpeedGustMPH,Humidity,HourlyPrecipIn,Conditions,Clouds,dailyrainin,SoftwareType,DateUTC
2013-07-15 00:01:00,53.0,-99.9,29.92,West,276,6.0,15.0,-999,-99.99,,,-99.99,,2013-07-15 07:01:00,
2013-07-15 00:44:00,53.0,-99.9,29.92,West,264,4.0,12.0,-999,-99.99,,,-99.99,,2013-07-15 07:44:00,
2013-07-15 00:53:00,52.0,-99.9,29.92,SW,235,9.0,14.0,-999,-99.99,,,-99.99,,2013-07-15 07:53:00,
2013-07-15 01:02:00,52.0,-99.9,29.92,WSW,251,6.0,15.0,-999,-99.99,,,-99.99,,2013-07-15 08:02:00,
2013-07-15 01:32:00,53.0,-99.9,29.91,WSW,246,2.0,8.0,-999,-99.99,,,-99.99,,2013-07-15 08:32:00,
2013-07-15 01:43:00,52.0,-99.9,29.91,WSW,251,7.0,13.0,-999,-99.99,,,-99.99,,2013-07-15 08:43:00,
2013-07-15 01:53:00,53.0,-99.9,29.91,WSW,247,5.0,7.0,-999,-99.99,,,-99.99,,2013-07-15 08:53:00,
2013-07-15 02:02:00,53.0,-99.9,29.91,West,275,5.0,12.0,-999,-99.99,,,-99.99,,2013-07-15 09:02:00,
2013-07-15 02:12:00,52.0,-99.9,29.91,West,263,9.0,15.0,-999,-99.99,,,-99.99,,2013-07-15 09:12:00,
2013-07-15 02:32:00,52.0,-99.9,29.91,West,265,7.0,13.0,-999,-99.99,,,-99.99,,2013-07-15 09:32:00,
2013-07-15 02:43:00,52.0,-99.9,29.91,SW,230,6.0,14.0,-999,-99.99,,,-99.99,,2013-07-15 09:43:00,
2013-07-15 02:52:00,52.0,-99.9,29.91,WNW,301,2.0,8.0,-999,-99.99,,,-99.99,,2013-07-15 09:52:00,
2013-07-15 03:02:00,52.0,-99.9,29.91,SSW,213,3.0,10.0,-999,-99.99,,,-99.99,,2013-07-15 10:02:00,
2013-07-15 03:11:00,52.0,-99.9,29.91,SW,233,2.0,10.0,-999,-99.99,,,-99.99,,2013-07-15 10:11:00,
2013-07-15 03:32:00,53.0,-99.9,29.91,SSE,157,3.0,6.0,-999,-99.99,,,-99.99,,2013-07-15 10:32:00,
2013-07-15 03:43:00,52.0,-99.9,29.91,West,267,0.0,7.0,-999,-99.99,,,-99.99,,2013-07-15 10:43:00,
2013-07-15 03:53:00,52.0,-99.9,29.91,West,268,7.0,11.0,-999,-99.99,,,-99.99,,2013-07-15 10:53:00,
2013-07-15 04:02:00,52.0,-99.9,29.90,West,279,5.0,11.0,-999,-99.99,,,-99.99,,2013-07-15 11:02:00,
2013-07-15 04:11:00,52.0,-99.9,29.90,WSW,247,0.0,8.0,-999,-99.99,,,-99.99,,2013-07-15 11:11:00,
2013-07-15 04:32:00,52.0,-99.9,29.90,West,263,3.0,7.0,-999,-99.99,,,-99.99,,2013-07-15 11:32:00,
2013-07-15 04:42:00,52.0,-99.9,29.90,WSW,250,7.0,10.0,-999,-99.99,,,-99.99,,2013-07-15 11:42:00,
2013-07-15 04:52:00,52.0,-99.9,29.90,West,259,5.0,10.0,-999,-99.99,,,-99.99,,2013-07-15 11:52:00,
2013-07-15 05:01:00,52.0,-99.9,29.90,SSW,200,2.0,9.0,-999,-99.99,,,-99.99,,2013-07-15 12:01:00,
2013-07-15 05:11:00,52.0,-99.9,29.90,SSW,200,2.0,9.0,-999,-99.99,,,-99.99,,2013-07-15 12:11:00,
2013-07-15 05:33:00,52.0,-99.9,29.90,WSW,237,5.0,8.0,-999,-99.99,,,-99.99,,2013-07-15 12:33:00,
2013-07-15 05:42:00,52.0,-99.9,29.90,NNW,332,2.0,9.0,-999,-99.99,,,-99.99,,2013-07-15 12:42:00,
2013-07-15 05:53:00,52.0,-99.9,29.90,West,279,3.0,6.0,-999,-99.99,,,-99.99,,2013-07-15 12:53:00,
2013-07-15 06:02:00,52.0,-99.9,29.90,West,264,7.0,11.0,-999,-99.99,,,-99.99,,2013-07-15 13:02:00,
2013-07-15 06:11:00,52.0,-99.9,29.90,West,264,7.0,11.0,-999,-99.99,,,-99.99,,2013-07-15 13:11:00,
2013-07-15 06:43:00,52.0,-99.9,29.90,West,267,5.0,11.0,-999,-99.99,,,-99.99,,2013-07-15 13:43:00,
2013-07-15 07:02:00,52.0,-99.9,29.90,West,260,5.0,9.0,-999,-99.99,,,-99.99,,2013-07-15 14:02:00,
2013-07-15 07:33:00,52.0,-99.9,29.91,West,264,3.0,6.0,-999,-99.99,,,-99.99,,2013-07-15 14:33:00,
2013-07-15 07:43:00,52.0,-99.9,29.91,SW,223,3.0,9.0,-999,-99.99,,,-99.99,,2013-07-15 14:43:00,
2013-07-15 08:03:00,52.0,-99.9,29.91,West,268,6.0,13.0,-999,-99.99,,,-99.99,,2013-07-15 15:03:00,
2013-07-15 08:19:00,53.0,-99.9,29.91,West,263,4.0,11.0,-999,-99.99,,,-99.99,,2013-07-15 15:19:00,
2013-07-15 08:41:00,53.0,-99.9,29.91,SSE,151,5.0,11.0,-999,-99.99,,,-99.99,,2013-07-15 15:41:00,
2013-07-15 08:50:00,53.0,-99.9,29.91,SE,128,1.0,7.0,-999,-99.99,,,-99.99,,2013-07-15 15:50:00,
2013-07-15 09:08:00,53.0,-99.9,29.91,SW,228,2.0,9.0,-999,-99.99,,,-99.99,,2013-07-15 16:08:00,
2013-07-15 09:15:00,53.0,-99.9,29.91,WSW,248,1.0,10.0,-999,-99.99,,,-99.99,,2013-07-15 16:15:00,
2013-07-15 09:33:00,53.0,-99.9,29.91,WSW,258,6.0,9.0,-999,-99.99,,,-99.99,,2013-07-15 16:33:00,
2013-07-15 09:50:00,53.0,-99.9,29.91,WSW,258,6.0,9.0,-999,-99.99,,,-99.99,,2013-07-15 16:50:00,
2013-07-15 10:08:00,54.0,-99.9,29.92,West,261,4.0,9.0,-999,-99.99,,,-99.99,,2013-07-15 17:08:00,
2013-07-15 10:37:00,54.0,-99.9,29.91,West,268,3.0,7.0,-999,-99.99,,,-99.99,,2013-07-15 17:37:00,
2013-07-15 11:01:00,55.0,-99.9,29.91,West,268,6.0,9.0,-999,-99.99,,,-99.99,,2013-07-15 18:01:00,
2013-07-15 11:08:00,55.0,-99.9,29.91,SW,222,4.0,9.0,-999,-99.99,,,-99.99,,2013-07-15 18:08:00,
2013-07-15 11:40:00,55.0,-99.9,29.91,West,278,5.0,9.0,-999,-99.99,,,-99.99,,2013-07-15 18:40:00,
2013-07-15 11:45:00,55.0,-99.9,29.91,West,266,6.0,12.0,-999,-99.99,,,-99.99,,2013-07-15 18:45:00,
2013-07-15 11:59:00,55.0,-99.9,29.91,West,263,6.0,11.0,-999,-99.99,,,-99.99,,2013-07-15 18:59:00,
2013-07-15 12:05:00,56.0,-99.9,29.91,West,263,8.0,13.0,-999,-99.99,,,-99.99,,2013-07-15 19:05:00,
2013-07-15 12:12:00,56.0,-99.9,29.91,West,268,9.0,13.0,-999,-99.99,,,-99.99,,2013-07-15 19:12:00,
2013-07-15 12:57:00,57.0,-99.9,29.91,WSW,254,9.0,13.0,-999,-99.99,,,-99.99,,2013-07-15 19:57:00,
2013-07-15 13:07:00,58.0,-99.9,29.90,West,272,6.0,13.0,-999,-99.99,,,-99.99,,2013-07-15 20:07:00,
2013-07-15 13:18:00,58.0,-99.9,29.90,West,265,11.0,17.0,-999,-99.99,,,-99.99,,2013-07-15 20:18:00,
2013-07-15 13:37:00,59.0,-99.9,29.90,WSW,255,5.0,11.0,-999,-99.99,,,-99.99,,2013-07-15 20:37:00,
2013-07-15 13:43:00,59.0,-99.9,29.90,WSW,239,9.0,16.0,-999,-99.99,,,-99.99,,2013-07-15 20:43:00,
2013-07-15 14:00:00,58.0,-99.9,29.90,West,263,13.0,17.0,-999,-99.99,,,-99.99,,2013-07-15 21:00:00,
2013-07-15 14:13:00,60.0,-99.9,29.89,West,263,7.0,15.0,-999,-99.99,,,-99.99,,2013-07-15 21:13:00,
2013-07-15 14:23:00,58.0,-99.9,29.89,WSW,253,11.0,21.0,-999,-99.99,,,-99.99,,2013-07-15 21:23:00,
2013-07-15 14:40:00,58.0,-99.9,29.89,West,260,13.0,17.0,-999,-99.99,,,-99.99,,2013-07-15 21:40:00,
2013-07-15 15:02:00,58.0,-99.9,29.89,WSW,256,12.0,19.0,-999,-99.99,,,-99.99,,2013-07-15 22:02:00,
2013-07-15 15:44:00,60.0,-99.9,29.87,West,267,8.0,16.0,-999,-99.99,,,-99.99,,2013-07-15 22:44:00,
2013-07-15 16:30:00,59.0,-99.9,29.87,West,266,11.0,19.0,-999,-99.99,,,-99.99,,2013-07-15 23:30:00,
2013-07-15 16:50:00,59.0,-99.9,29.86,West,260,15.0,21.0,-999,-99.99,,,-99.99,,2013-07-15 23:50:00,
2013-07-15 17:03:00,61.0,-99.9,29.85,SW,234,7.0,15.0,-999,-99.99,,,-99.99,,2013-07-16 00:03:00,
2013-07-15 17:34:00,60.0,-99.9,29.85,West,261,9.0,20.0,-999,-99.99,,,-99.99,,2013-07-16 00:34:00,
2013-07-15 17:53:00,58.0,-99.9,29.85,WSW,237,10.0,14.0,-999,-99.99,,,-99.99,,2013-07-16 00:53:00,
2013-07-15 18:17:00,59.0,-99.9,29.85,West,260,8.0,15.0,-999,-99.99,,,-99.99,,2013-07-16 01:17:00,
2013-07-15 18:49:00,58.0,-99.9,29.84,WSW,253,9.0,17.0,-999,-99.99,,,-99.99,,2013-07-16 01:49:00,
2013-07-15 19:02:00,58.0,-99.9,29.84,West,261,14.0,21.0,-999,-99.99,,,-99.99,,2013-07-16 02:02:00,
2013-07-15 19:35:00,57.0,-99.9,29.84,WSW,256,10.0,19.0,-999,-99.99,,,-99.99,,2013-07-16 02:35:00,
2013-07-15 19:53:00,57.0,-99.9,29.84,West,262,9.0,15.0,-999,-99.99,,,-99.99,,2013-07-16 02:53:00,
2013-07-15 20:10:00,57.0,-99.9,29.84,SW,228,9.0,18.0,-999,-99.99,,,-99.99,,2013-07-16 03:10:00,
2013-07-15 20:17:00,57.0,-99.9,29.84,West,267,12.0,16.0,-999,-99.99,,,-99.99,,2013-07-16 03:17:00,
2013-07-15 20:49:00,56.0,-99.9,29.85,West,261,11.0,17.0,-999,-99.99,,,-99.99,,2013-07-16 03:49:00,
2013-07-15 20:58:00,57.0,-99.9,29.85,West,266,9.0,16.0,-999,-99.99,,,-99.99,,2013-07-16 03:58:00,
2013-07-15 21:01:00,57.0,-99.9,29.85,WSW,254,7.0,12.0,-999,-99.99,,,-99.99,,2013-07-16 04:01:00,
2013-07-15 21:12:00,57.0,-99.9,29.85,West,261,9.0,15.0,-999,-99.99,,,-99.99,,2013-07-16 04:12:00,
2013-07-15 21:43:00,57.0,-99.9,29.85,West,261,8.0,13.0,-999,-99.99,,,-99.99,,2013-07-16 04:43:00,
2013-07-15 22:01:00,57.0,-99.9,29.86,WSW,257,7.0,11.0,-999,-99.99,,,-99.99,,2013-07-16 05:01:00,
2013-07-15 22:11:00,57.0,-99.9,29.85,WSW,239,4.0,10.0,-999,-99.99,,,-99.99,,2013-07-16 05:11:00,
2013-07-15 22:32:00,57.0,-99.9,29.86,SSE,156,7.0,12.0,-999,-99.99,,,-99.99,,2013-07-16 05:32:00,
2013-07-15 22:52:00,57.0,-99.9,29.87,WSW,256,9.0,15.0,-999,-99.99,,,-99.99,,2013-07-16 05:52:00,
2013-07-15 23:01:00,57.0,-99.9,29.86,WSW,254,9.0,13.0,-999,-99.99,,,-99.99,,2013-07-16 06:01:00,
2013-07-15 23:22:00,56.0,-99.9,29.86,West,266,9.0,14.0,-999,-99.99,,,-99.99,,2013-07-16 06:22:00,
2013-07-15 23:52:00,57.0,-99.9,29.86,WSW,257,4.0,10.0,-999,-99.99,,,-99.99,,2013-07-16 06:52:00,